Regional Weather Roundup
Issued by NWS

Home | Current Version | Previous Version | Graphics & Text | Print | Product List | Glossary On
Versions: 1 2 3 4 5 6 7 8 9 10 11 12 13 14 15 16 17 18 19 20 21 22 23 24 25 26 27 28 29 30 31 32 33 34 35 36 37 38 39 40 41 42 43 44 45 46 47 48 49 50
000
ASUS43 KOAX 032102
RWRNE

WEATHER ROUNDUP FOR NEBRASKA
NATIONAL WEATHER SERVICE OMAHA NE
400 PM CDT SUN MAY 03 2015

NOTES: SATELLITE DATA IS BEING USED TO AUGMENT CLOUD COVER ABOVE
       12000 FEET.
       "FAIR" INDICATES FEW OR NO CLOUDS BELOW 12,000 FEET WITH NO
       SIGNIFICANT WEATHER AND/OR OBSTRUCTIONS TO VISIBILITY.

  * THESE STATIONS DO NOT REPORT WEATHER SUCH AS RAIN...SNOW OR FOG.

NEZ001>004-019>022-054>056-032200-
NEBRASKA PANHANDLE

CITY           SKY/WX    TMP DP  RH WIND       PRES   REMARKS
SCOTTSBLUFF    MOSUNNY   72  39  30 NE16      29.95F
ALLIANCE       SUNNY     69  39  33 NE21G28   29.95F
CHADRON        SUNNY     70  41  34 E12G21    29.96F
KIMBALL        SUNNY     69  40  35 NE13G18   29.96S
SIDNEY         MOSUNNY   72  43  35 NE18G24   29.94F
$$

NEZ057>060-069>072-079>082-032200-
SOUTHWEST NEBRASKA

CITY           SKY/WX    TMP DP  RH WIND       PRES   REMARKS
NORTH PLATTE   SUNNY     78  46  32 N14G25    29.85S
IMPERIAL       SUNNY     82  40  22 N14G24    29.85F
MCCOOK         MOSUNNY   89  39  17 SW7       29.78F
$$

NEZ005>010-023>029-035>040-094-032200-
NORTH CENTRAL NEBRASKA

CITY           SKY/WX    TMP DP  RH WIND       PRES   REMARKS
VALENTINE      MOSUNNY   72  37  28 NE22G32   29.93R
AINSWORTH      MOSUNNY   74  41  30 N16G28    29.90R
BROKEN BOW     SUNNY     81  49  32 N20       29.81R
ORD            SUNNY     82  53  36 N20       29.77R
$$

NEZ041-046>049-061>064-073>077-083>087-032200-
SOUTH CENTRAL NEBRASKA

CITY           SKY/WX    TMP DP  RH WIND       PRES   REMARKS
GRAND ISLAND   SUNNY     90  42  18 SW15G23   29.73S
AURORA         SUNNY     92  37  14 W13G21    29.72S
HASTINGS       SUNNY     90  40  17 W12G21    29.73F
KEARNEY *      SUNNY     90  41  18 SW12      29.75S
$$

NEZ011>018-030>034-042>045-032200-
NORTHEAST NEBRASKA

CITY           SKY/WX    TMP DP  RH WIND       PRES   REMARKS
NORFOLK        MOSUNNY   85  55  35 N9        29.72S
ALBION         MOSUNNY   85  46  25 NW7       29.74S HAZE
BLAIR          PTSUNNY   80  56  44 S9        29.74F
COLUMBUS *     MOSUNNY   82  59  44 E7        29.74S
FREMONT        MOSUNNY   82  58  43 S10       29.74S
TEKAMAH        MOSUNNY   87  58  37 VRB7      29.71F
$$

NEZ050>053-065>068-078-088>093-032200-
SOUTHEAST NEBRASKA

CITY           SKY/WX    TMP DP  RH WIND       PRES   REMARKS
LINCOLN        MOSUNNY   83  63  50 SE10      29.74F
OMAHA EPPLEY   PTSUNNY   80  60  50 SE8       29.74R
BEATRICE       MOSUNNY   85  59  40 S13       29.74S
FALLS CITY     MOSUNNY   83  58  42 S13G21    29.77S
NEBRASKA CITY  PTSUNNY   79  52  39 S7        29.77S
PLATTSMOUTH    CLOUDY    77  56  48 SW10      29.78R
$$

NEZ044-045-051>053-067-032200-
OMAHA AREA

CITY           SKY/WX    TMP DP  RH WIND       PRES   REMARKS
OMAHA EPPLEY   PTSUNNY   80  60  50 SE8       29.74R
BLAIR          PTSUNNY   80  56  44 S9        29.74F
FREMONT        MOSUNNY   82  58  43 S10       29.74S
PLATTSMOUTH    CLOUDY    77  56  48 SW10      29.78R
WAHOO          FAIR      78  55  45 SW3       29.74S
$$


USA.gov is the U.S. government's official web portal to all federal, state and local government web resources and services.